Zurück zum Katalog

STARLINK-32736

AktivKommunikationVLEO
NORAD 62443·PAYLOAD·🇺🇸 United States

Gestartet Dec 29, 2024 von Vandenberg Space Force Base

Loading…

Nächste Überflüge (nächste 24 Stunden)

TLE

AktuellSource: CelesTrak SupGP

Epoche: Sep 14, 2026, 22:47 UTC

1 62443C 24251M   26257.94979167 -.00067959  00000+0 -20074-2 0  2576
2 62443  53.1583 175.5088 0001293  86.1334 321.1378 15.34432161    16

Verfolge STARLINK-32736 in Echtzeit mit AllMySat

Download on the App Store